• In Belarus
  • List of Countries
  • For 7 days
  • Water Temperature
  • Weather Map
  • Weather Widgets
  • user-avatar
    Login

    Hourly Weather Thimphu

    Today, 19 January, Sunday

    Time Temperature Precipitation Wind Pressure Humidity
    00:00 -6°C° 0 mm 2 mps 518 mmHg 82%
    01:00 -6°C° 0 mm 2 mps 518 mmHg 81%
    02:00 -6°C° 0 mm 2 mps 517 mmHg 80%
    03:00 -7°C° 0 mm 2 mps 517 mmHg 79%
    04:00 -7°C° 0 mm 2 mps 517 mmHg 77%
    05:00 -7°C° 0 mm 2 mps 517 mmHg 75%
    06:00 -4°C° 0 mm 1 mps 517 mmHg 76%
    07:00 -2°C° 0 mm 1 mps 519 mmHg 69%
    08:00 0°C° 0 mm 1 mps 520 mmHg 63%
    09:00 +1°C° 0 mm 0 mps 522 mmHg 57%
    10:00 +3°C° 0 mm 1 mps 522 mmHg 52%
    11:00 +4°C° 0 mm 2 mps 522 mmHg 46%
    12:00 +4°C° 0 mm 3 mps 523 mmHg 41%
    13:00 +4°C° 0.1 mm 3 mps 522 mmHg 40%
    14:00 +3°C° 0.1 mm 3 mps 522 mmHg 40%
    15:00 +3°C° 0.1 mm 3 mps 521 mmHg 40%
    16:00 +1°C° 0.2 mm 3 mps 520 mmHg 56%
    17:00 -2°C° 0.2 mm 2 mps 518 mmHg 73%
    18:00 -2°C° 0.2 mm 1 mps 517 mmHg 90%
    19:00 -3°C° 0.2 mm 1 mps 517 mmHg 90%
    20:00 -3°C° 0.2 mm 1 mps 517 mmHg 91%
    21:00 -3°C° 0.2 mm 1 mps 517 mmHg 91%
    22:00 -4°C° 0.1 mm 1 mps 517 mmHg 90%
    23:00 -4°C° 0.1 mm 1 mps 517 mmHg 89%

    Tomorrow, 20 January, Monday

    Time Temperature Precipitation Wind Pressure Humidity
    00:00 -4°C° 0.1 mm 1 mps 517 mmHg 89%
    01:00 -6°C° 0 mm 1 mps 516 mmHg 85%
    02:00 -6°C° 0 mm 1 mps 516 mmHg 81%
    03:00 -6°C° 0 mm 1 mps 516 mmHg 78%
    04:00 -7°C° 0 mm 2 mps 516 mmHg 75%
    05:00 -8°C° 0 mm 2 mps 516 mmHg 72%
    06:00 -8°C° 0 mm 2 mps 516 mmHg 70%
    07:00 -4°C° 0 mm 1 mps 517 mmHg 61%
    08:00 -1°C° 0 mm 1 mps 519 mmHg 53%
    09:00 0°C° 0 mm 0 mps 521 mmHg 44%
    10:00 +2°C° 0 mm 1 mps 521 mmHg 42%
    11:00 +3°C° 0 mm 2 mps 522 mmHg 39%
    12:00 +4°C° 0 mm 2 mps 523 mmHg 36%
    13:00 +4°C° 0 mm 2 mps 522 mmHg 43%
    14:00 +3°C° 0 mm 2 mps 521 mmHg 49%
    15:00 +3°C° 0 mm 2 mps 520 mmHg 55%
    16:00 +1°C° 0.2 mm 2 mps 519 mmHg 68%
    17:00 0°C° 0.2 mm 1 mps 518 mmHg 82%
    18:00 -3°C° 0.2 mm 0 mps 517 mmHg 95%
    19:00 -3°C° 0.2 mm 1 mps 517 mmHg 94%
    20:00 -3°C° 0.2 mm 1 mps 518 mmHg 92%
    21:00 -3°C° 0.2 mm 1 mps 518 mmHg 91%
    22:00 -3°C° 0.1 mm 1 mps 518 mmHg 89%
    23:00 -4°C° 0.1 mm 1 mps 518 mmHg 88%

    Day after tomorrow, 21 January, Tuesday

    Time Temperature Precipitation Wind Pressure Humidity
    00:00 -4°C° 0.1 mm 1 mps 518 mmHg 86%
    01:00 -6°C° 0 mm 1 mps 517 mmHg 84%
    02:00 -6°C° 0 mm 1 mps 517 mmHg 81%
    03:00 -7°C° 0 mm 2 mps 516 mmHg 79%
    04:00 -7°C° 0 mm 2 mps 516 mmHg 77%
    05:00 -7°C° 0 mm 2 mps 516 mmHg 74%
    06:00 -8°C° 0 mm 2 mps 516 mmHg 72%
    07:00 -3°C° 0 mm 1 mps 518 mmHg 65%
    08:00 -1°C° 0 mm 1 mps 520 mmHg 57%
    09:00 +2°C° 0 mm 1 mps 522 mmHg 50%
    10:00 +3°C° 0 mm 1 mps 522 mmHg 49%
    11:00 +3°C° 0 mm 2 mps 523 mmHg 47%
    12:00 +4°C° 0 mm 2 mps 523 mmHg 46%
    13:00 +4°C° 0.1 mm 2 mps 522 mmHg 53%
    14:00 +3°C° 0.1 mm 2 mps 522 mmHg 60%
    15:00 +3°C° 0.1 mm 2 mps 521 mmHg 67%
    16:00 +1°C° 0.1 mm 2 mps 520 mmHg 77%
    17:00 0°C° 0.1 mm 1 mps 519 mmHg 86%
    18:00 -2°C° 0.1 mm 1 mps 518 mmHg 96%
    19:00 -2°C° 0 mm 1 mps 518 mmHg 94%
    20:00 -2°C° 0 mm 1 mps 518 mmHg 92%
    21:00 -3°C° 0 mm 1 mps 519 mmHg 90%
    22:00 -3°C° 0 mm 1 mps 518 mmHg 88%
    23:00 -4°C° 0 mm 1 mps 518 mmHg 87%

    22 January, Wednesday

    Time Temperature Precipitation Wind Pressure Humidity
    00:00 -4°C° 0 mm 1 mps 518 mmHg 85%
    01:00 -4°C° 0 mm 1 mps 517 mmHg 84%
    02:00 -4°C° 0 mm 1 mps 517 mmHg 83%
    03:00 -6°C° 0 mm 1 mps 517 mmHg 81%
    04:00 -6°C° 0 mm 1 mps 517 mmHg 80%
    05:00 -7°C° 0 mm 2 mps 516 mmHg 78%
    06:00 -7°C° 0 mm 2 mps 516 mmHg 77%
    07:00 -3°C° 0 mm 1 mps 518 mmHg 69%
    08:00 -1°C° 0 mm 1 mps 520 mmHg 60%
    09:00 +1°C° 0 mm 0 mps 522 mmHg 52%
    10:00 +3°C° 0 mm 1 mps 522 mmHg 51%
    11:00 +4°C° 0 mm 1 mps 523 mmHg 50%
    12:00 +5°C° 0 mm 2 mps 523 mmHg 48%
    13:00 +4°C° 0.1 mm 2 mps 522 mmHg 56%
    14:00 +3°C° 0.1 mm 2 mps 521 mmHg 65%
    15:00 +2°C° 0.1 mm 2 mps 520 mmHg 73%
    16:00 +1°C° 0.1 mm 2 mps 519 mmHg 81%
    17:00 0°C° 0.1 mm 1 mps 518 mmHg 89%
    18:00 -2°C° 0.1 mm 1 mps 517 mmHg 98%
    19:00 -2°C° 0.1 mm 1 mps 517 mmHg 96%
    20:00 -3°C° 0.1 mm 0 mps 517 mmHg 94%
    21:00 -3°C° 0.1 mm 0 mps 518 mmHg 91%
    22:00 -3°C° 0 mm 1 mps 517 mmHg 90%
    23:00 -3°C° 0 mm 1 mps 517 mmHg 89%

    23 January, Thursday

    Time Temperature Precipitation Wind Pressure Humidity
    00:00 -4°C° 0 mm 1 mps 516 mmHg 88%
    01:00 -4°C° 0 mm 1 mps 516 mmHg 85%
    02:00 -6°C° 0 mm 1 mps 515 mmHg 82%
    03:00 -7°C° 0 mm 2 mps 515 mmHg 79%
    04:00 -7°C° 0 mm 2 mps 515 mmHg 76%
    05:00 -8°C° 0 mm 2 mps 514 mmHg 73%
    06:00 -8°C° 0 mm 2 mps 514 mmHg 70%
    07:00 -4°C° 0 mm 1 mps 516 mmHg 64%
    08:00 -1°C° 0 mm 1 mps 517 mmHg 58%
    09:00 0°C° 0 mm 0 mps 519 mmHg 52%
    10:00 +2°C° 0 mm 1 mps 519 mmHg 52%
    11:00 +2°C° 0 mm 2 mps 520 mmHg 52%
    12:00 +3°C° 0 mm 2 mps 520 mmHg 52%
    13:00 +3°C° 0.1 mm 2 mps 519 mmHg 59%
    14:00 +2°C° 0.1 mm 2 mps 518 mmHg 65%
    15:00 +2°C° 0.1 mm 2 mps 518 mmHg 72%
    16:00 -1°C° 0.2 mm 2 mps 517 mmHg 80%
    17:00 -1°C° 0.2 mm 1 mps 516 mmHg 89%
    18:00 -2°C° 0.2 mm 1 mps 515 mmHg 97%
    19:00 -3°C° 0.1 mm 1 mps 515 mmHg 95%
    20:00 -3°C° 0.1 mm 1 mps 515 mmHg 93%
    21:00 -4°C° 0.1 mm 1 mps 516 mmHg 90%
    22:00 -4°C° 0 mm 1 mps 515 mmHg 85%
    23:00 -4°C° 0 mm 1 mps 515 mmHg 80%

    24 January, Friday

    Time Temperature Precipitation Wind Pressure Humidity
    00:00 -4°C° 0 mm 1 mps 515 mmHg 76%
    01:00 -4°C° 0 mm 1 mps 515 mmHg 73%
    02:00 -6°C° 0 mm 1 mps 514 mmHg 70%
    03:00 -6°C° 0 mm 1 mps 514 mmHg 67%
    04:00 -6°C° 0 mm 1 mps 514 mmHg 65%
    05:00 -7°C° 0 mm 1 mps 514 mmHg 62%
    06:00 -8°C° 0 mm 2 mps 514 mmHg 60%
    07:00 -4°C° 0 mm 1 mps 516 mmHg 57%
    08:00 -1°C° 0 mm 1 mps 517 mmHg 54%
    09:00 0°C° 0 mm 0 mps 519 mmHg 52%
    10:00 +2°C° 0 mm 1 mps 520 mmHg 52%
    11:00 +4°C° 0 mm 1 mps 520 mmHg 53%
    12:00 +4°C° 0 mm 2 mps 520 mmHg 54%
    13:00 +3°C° 0.1 mm 2 mps 520 mmHg 60%
    14:00 +3°C° 0.1 mm 2 mps 519 mmHg 66%
    15:00 +2°C° 0.1 mm 2 mps 518 mmHg 72%
    16:00 +1°C° 0.1 mm 2 mps 517 mmHg 79%
    17:00 0°C° 0.1 mm 1 mps 516 mmHg 87%
    18:00 -3°C° 0.1 mm 0 mps 515 mmHg 95%
    19:00 -2°C° 0.1 mm 1 mps 516 mmHg 91%
    20:00 -2°C° 0.1 mm 1 mps 516 mmHg 87%
    21:00 -3°C° 0.1 mm 1 mps 516 mmHg 83%
    22:00 -3°C° 0 mm 1 mps 516 mmHg 78%
    23:00 -3°C° 0 mm 1 mps 516 mmHg 74%
    Show more